Change the Weather History Date:

Sunday, January 19, 2014

  Actual Average Record
Temperature  
Mean Temperature 24 °F -  
Max Temperature 30 °F 33 °F 66 °F (1986)
Min Temperature 19 °F 15 °F -14 °F (1940)
Degree Days  
Heating Degree Days 40    
Moisture  
Dew Point 19 °F    
Average Humidity 80    
Maximum Humidity 100    
Minimum Humidity 64    
Precipitation  
Precipitation 0.00 in - - ()
Sea Level Pressure  
Sea Level Pressure 29.78 in    
Wind  
Wind Speed 9 mph (SW)    
Max Wind Speed 20 mph    
Max Gust Speed 30 mph    
Visibility 9 miles    
Events Snow    
Averages and records for this station are not official NWS values.
T = Trace of Precipitation, MM = Missing Value Source: NWS Daily Summary

Daily Weather History Graph

Daily Weather History Graph

Search for Another Location

Airport or City:

Trip Planner

Search our weather history database for the weather conditions in past years. The results will help you decide how hot, cold, wet, or windy it might be!

Date:

Astronomy

Jan. 19, 2014 Rise Set
Actual Time 7:51 AM EST 5:35 PM EST
Civil Twilight 7:21 AM EST 6:05 PM EST
Nautical Twilight 6:48 AM EST 6:38 PM EST
Astronomical Twilight 6:15 AM EST 7:10 PM EST
Moon 9:13 PM EST (1/19) 9:20 AM EST (1/19)
Length of Visible Light 10h 43m
Length of Day
9h 44m
Waning Gibbous, 89% of the Moon is Illuminated
Jan 19
Waning Gibbous
Jan 24
Last Quarter
Jan 30
New
Feb 6
First Quarter
Feb 14
Full

Hourly Weather History & Observations

Time (EST) Temp. Windchill Dew Point Humidity Pressure Visibility Wind Dir Wind Speed Gust Speed Precip Events Conditions
12:15 AM 19.4 °F 9.5 °F 17.6 °F 93% 29.77 in 5.0 mi SSE 8.1 mph - N/A Snow Light Snow
12:35 AM 19.4 °F 12.8 °F 17.6 °F 93% 29.76 in 4.0 mi SSE 4.6 mph - N/A Snow Light Snow
12:54 AM 21.2 °F 13.6 °F 19.4 °F 93% 29.76 in 4.0 mi SSE 5.8 mph - N/A Snow Light Snow
1:15 AM 21.2 °F 13.6 °F 19.4 °F 93% 29.75 in 7.0 mi SSE 5.8 mph - N/A Snow Light Snow
1:35 AM 21.2 °F 14.9 °F 19.4 °F 93% 29.74 in 10.0 mi SSE 4.6 mph - N/A   Overcast
1:54 AM 21.2 °F 16.4 °F 19.4 °F 93% 29.75 in 10.0 mi SSE 3.5 mph - N/A Snow Light Snow
2:15 AM 21.2 °F - 19.4 °F 93% 29.75 in 10.0 mi Calm Calm - N/A   Overcast
2:35 AM 21.2 °F - 19.4 °F 93% 29.75 in 2.5 mi Calm Calm - N/A Snow Light Snow
2:54 AM 21.2 °F - 19.4 °F 93% 29.76 in 2.5 mi Calm Calm - N/A Snow Light Snow
3:15 AM 21.2 °F - 19.4 °F 93% 29.75 in 3.0 mi Calm Calm - N/A Snow Light Snow
3:35 AM 21.2 °F - 19.4 °F 93% 29.76 in 4.0 mi Calm Calm - N/A Snow Light Snow
3:54 AM 21.2 °F - 19.4 °F 93% 29.76 in 3.0 mi Calm Calm - N/A Snow Light Snow
4:15 AM 21.2 °F - 19.4 °F 93% 29.76 in 5.0 mi Calm Calm - N/A Snow Light Snow
4:35 AM 19.4 °F - 19.4 °F 100% 29.75 in 7.0 mi Calm Calm - N/A Snow Light Snow
4:54 AM 21.2 °F - 19.4 °F 93% 29.76 in 10.0 mi Calm Calm - N/A   Overcast
5:15 AM 21.2 °F 16.4 °F 19.4 °F 93% 29.77 in 10.0 mi West 3.5 mph - N/A   Overcast
5:35 AM 21.2 °F 16.4 °F 19.4 °F 93% 29.77 in 10.0 mi West 3.5 mph - N/A   Overcast
5:54 AM 21.2 °F - 19.4 °F 93% 29.77 in 10.0 mi Calm Calm - N/A   Overcast
6:15 AM 21.2 °F 14.9 °F 19.4 °F 93% 29.79 in 10.0 mi West 4.6 mph - N/A   Overcast
6:35 AM 23.0 °F 13.9 °F 19.4 °F 86% 29.79 in 10.0 mi West 8.1 mph - N/A   Overcast
6:54 AM 23.0 °F 10.6 °F 19.4 °F 86% 29.80 in 10.0 mi West 13.8 mph 19.6 mph N/A   Overcast
7:15 AM 23.0 °F 10.6 °F 19.4 °F 86% 29.82 in 10.0 mi WNW 13.8 mph - N/A   Overcast
7:35 AM 21.2 °F 9.5 °F 19.4 °F 93% 29.83 in 10.0 mi WNW 11.5 mph - N/A   Overcast
7:54 AM 21.2 °F 11.7 °F 17.6 °F 86% 29.83 in 10.0 mi West 8.1 mph - N/A   Overcast
8:15 AM 19.4 °F 10.4 °F 15.8 °F 86% 29.84 in 10.0 mi West 6.9 mph - N/A   Mostly Cloudy
8:34 AM 19.4 °F 9.5 °F 17.6 °F 93% 29.85 in 10.0 mi West 8.1 mph - N/A   Mostly Cloudy
8:55 AM 21.2 °F 8.3 °F 17.6 °F 86% 29.85 in 10.0 mi West 13.8 mph 20.7 mph N/A   Overcast
9:15 AM 21.2 °F 8.9 °F 15.8 °F 80% 29.85 in 10.0 mi West 12.7 mph 17.3 mph N/A   Overcast
9:34 AM 21.2 °F 10.1 °F 15.8 °F 80% 29.87 in 10.0 mi West 10.4 mph - N/A   Overcast
9:55 AM 21.2 °F 11.7 °F 17.6 °F 86% 29.87 in 10.0 mi WSW 8.1 mph - N/A   Overcast
10:15 AM 21.2 °F 8.3 °F 17.6 °F 86% 29.88 in 10.0 mi WSW 13.8 mph - N/A   Overcast
10:34 AM 21.2 °F 8.3 °F 15.8 °F 80% 29.88 in 10.0 mi WSW 13.8 mph - N/A   Overcast
10:55 AM 23.0 °F 10.6 °F 17.6 °F 80% 29.87 in 10.0 mi WSW 13.8 mph 18.4 mph N/A   Scattered Clouds
11:15 AM 23.0 °F 10.1 °F 17.6 °F 80% 29.87 in 10.0 mi SW 15.0 mph 18.4 mph N/A   Scattered Clouds
11:34 AM 23.0 °F 10.1 °F 17.6 °F 80% 29.86 in 10.0 mi SW 15.0 mph 19.6 mph N/A   Scattered Clouds
11:55 AM 23.0 °F 9.6 °F 17.6 °F 80% 29.87 in 3.0 mi WSW 16.1 mph 25.3 mph N/A Snow Light Snow
12:15 PM 23.0 °F 10.6 °F 17.6 °F 80% 29.84 in 10.0 mi SW 13.8 mph 20.7 mph N/A   Scattered Clouds
12:34 PM 24.8 °F 12.9 °F 17.6 °F 74% 29.84 in 10.0 mi SW 13.8 mph 20.7 mph N/A   Scattered Clouds
12:55 PM 24.8 °F 11.5 °F 17.6 °F 74% 29.83 in 10.0 mi SW 17.3 mph 21.9 mph N/A   Clear
1:15 PM 26.6 °F 13.8 °F 17.6 °F 69% 29.81 in 10.0 mi SSW 17.3 mph 23.0 mph N/A   Clear
1:34 PM 26.6 °F 14.3 °F 17.6 °F 69% 29.80 in 10.0 mi SSW 16.1 mph 23.0 mph N/A   Clear
1:55 PM 26.6 °F 13.4 °F 19.4 °F 74% 29.79 in 10.0 mi SSW 18.4 mph 25.3 mph N/A   Clear
2:15 PM 26.6 °F 15.7 °F 19.4 °F 74% 29.79 in 10.0 mi SW 12.7 mph 23.0 mph N/A   Clear
2:34 PM 26.6 °F 13.8 °F 19.4 °F 74% 29.79 in 10.0 mi SSW 17.3 mph 25.3 mph N/A   Clear
2:55 PM 28.4 °F 17.5 °F 19.4 °F 69% 29.79 in 10.0 mi SW 13.8 mph 23.0 mph N/A   Clear
3:14 PM 28.4 °F 16.6 °F 19.4 °F 69% 29.79 in 10.0 mi SSW 16.1 mph 24.2 mph N/A   Clear
3:35 PM 28.4 °F 17.0 °F 19.4 °F 69% 29.78 in 10.0 mi SW 15.0 mph 23.0 mph N/A   Clear
3:55 PM 28.4 °F 16.6 °F 19.4 °F 69% 29.78 in 10.0 mi SSW 16.1 mph 21.9 mph N/A   Clear
4:14 PM 28.4 °F 17.5 °F 19.4 °F 69% 29.77 in 10.0 mi SSW 13.8 mph 21.9 mph N/A   Clear
4:35 PM 28.4 °F 17.5 °F 19.4 °F 69% 29.77 in 10.0 mi SSW 13.8 mph 19.6 mph N/A   Clear
4:55 PM 28.4 °F 17.0 °F 19.4 °F 69% 29.77 in 10.0 mi SSW 15.0 mph 20.7 mph N/A   Clear
5:14 PM 28.4 °F 16.6 °F 19.4 °F 69% 29.76 in 10.0 mi SSW 16.1 mph 23.0 mph N/A   Clear
5:35 PM 28.4 °F 16.6 °F 19.4 °F 69% 29.76 in 10.0 mi SSW 16.1 mph 20.7 mph N/A   Clear
5:55 PM 28.4 °F 16.6 °F 19.4 °F 69% 29.75 in 10.0 mi SSW 16.1 mph - N/A   Clear
6:14 PM 28.4 °F 17.0 °F 19.4 °F 69% 29.75 in 10.0 mi SSW 15.0 mph 20.7 mph N/A   Clear
6:35 PM 30.2 °F 19.3 °F 19.4 °F 64% 29.74 in 10.0 mi SSW 15.0 mph 20.7 mph N/A   Clear
6:55 PM 30.2 °F 18.5 °F 21.2 °F 69% 29.73 in 10.0 mi SSW 17.3 mph 23.0 mph N/A   Clear
7:14 PM 30.2 °F 18.1 °F 21.2 °F 69% 29.73 in 10.0 mi SSW 18.4 mph 26.5 mph N/A   Clear
7:35 PM 30.2 °F 18.5 °F 21.2 °F 69% 29.73 in 10.0 mi SSW 17.3 mph 26.5 mph N/A   Clear
7:55 PM 30.2 °F 17.8 °F 21.2 °F 69% 29.72 in 10.0 mi SSW 19.6 mph 29.9 mph N/A   Clear
8:14 PM 30.2 °F 18.1 °F 21.2 °F 69% 29.72 in 10.0 mi SSW 18.4 mph 26.5 mph N/A   Clear
8:35 PM 30.2 °F 17.8 °F 21.2 °F 69% 29.71 in 10.0 mi SSW 19.6 mph 26.5 mph N/A   Clear
8:55 PM 30.2 °F 18.9 °F 21.2 °F 69% 29.70 in 10.0 mi SSW 16.1 mph 24.2 mph N/A   Clear
9:14 PM 30.2 °F 18.1 °F 21.2 °F 69% 29.71 in 10.0 mi SW 18.4 mph 27.6 mph N/A   Clear
9:35 PM 30.2 °F 20.2 °F 21.2 °F 69% 29.72 in 10.0 mi SW 12.7 mph 23.0 mph N/A   Clear
9:55 PM 30.2 °F 21.3 °F 21.2 °F 69% 29.73 in 10.0 mi SSW 10.4 mph 19.6 mph N/A   Clear
10:14 PM 30.2 °F 20.8 °F 21.2 °F 69% 29.72 in 10.0 mi SSW 11.5 mph - N/A   Clear
10:35 PM 30.2 °F 21.3 °F 21.2 °F 69% 29.71 in 10.0 mi SSW 10.4 mph - N/A   Clear
10:55 PM 30.2 °F 20.8 °F 21.2 °F 69% 29.71 in 10.0 mi SSW 11.5 mph 17.3 mph N/A   Clear
11:14 PM 30.2 °F 20.8 °F 21.2 °F 69% 29.70 in 10.0 mi SSW 11.5 mph - N/A   Clear
11:35 PM 30.2 °F 20.8 °F 21.2 °F 69% 29.69 in 10.0 mi SSW 11.5 mph 18.4 mph N/A   Clear
11:55 PM 30.2 °F 19.3 °F 23.0 °F 75% 29.68 in 10.0 mi SSW 15.0 mph 21.9 mph N/A   Clear